Indianapolis, IN

7:24 AM EST on January 17, 2018 (GMT -0500)
Indianapolis International

Weather History for KIND - July, 2014

Change the Weather History Date:

Monday, July 14, 2014

  Actual Average Record
Temperature  
Mean Temperature 75 °F 76 °F  
Max Temperature 85 °F 85 °F 106 °F (1936)
Min Temperature 65 °F 66 °F 48 °F (1975)
Degree Days  
Heating Degree Days 0 0  
Month to date heating degree days 0 0  
Since 1 June heating degree days 2 16  
Since 1 July heating degree days 0 0  
Cooling Degree Days 10 11  
Month to date cooling degree days 103 151  
Year to date cooling degree days 445 461  
Since 1 June cooling degree days 341 377  
Growing Degree Days 25 (Base 50)    
Moisture  
Dew Point 67 °F    
Average Humidity 76    
Maximum Humidity 100    
Minimum Humidity 51    
Precipitation  
Precipitation 0.39 in 0.16 in 2.96 in (1962)
Month to date precipitation 0.94 2.22  
Year to date precipitation 25.41 23.87  
Snow  
Snow 0.00 in 0.00 in 0.00 in ()
Month to date snowfall 0.0 0.0  
Since 1 June snowfall 0.0 0.0  
Since 1 July snowfall 0.0 0.0  
Snow Depth 0.00 in    
Sea Level Pressure  
Sea Level Pressure 29.87 in    
Wind  
Wind Speed 7 mph (WSW)    
Max Wind Speed 36 mph    
Max Gust Speed 45 mph    
Visibility 8 miles    
Events Fog , Rain , Thunderstorm    
T = Trace of Precipitation, MM = Missing Value Source: NWS Daily Summary

Daily Weather History Graph

Daily Weather History Graph

Search for Another Location

Airport or City:

Trip Planner

Search our weather history database for the weather conditions in past years. The results will help you decide how hot, cold, wet, or windy it might be!

Date:

Astronomy

Jul. 14, 2014 Rise Set
Actual Time 6:29 AM EDT 9:12 PM EDT
Civil Twilight 5:57 AM EDT 9:44 PM EDT
Nautical Twilight 5:17 AM EDT 10:23 PM EDT
Astronomical Twilight 4:32 AM EDT 11:08 PM EDT
Moon 10:42 PM EDT (7/14) 9:10 AM EDT (7/14)
Length of Visible Light 15h 47m
Length of Day
14h 43m
Waning Gibbous, 93% of the Moon is Illuminated
Jul 14
Waning Gibbous
Jul 18
Last Quarter
Jul 26
New
Aug 3
First Quarter
Aug 10
Full

Hourly Weather History & Observations

Time (EDT) Temp. Heat Index Dew Point Humidity Pressure Visibility Wind Dir Wind Speed Gust Speed Precip Events Conditions
12:54 AM 72.0 °F - 70.0 °F 93% 29.89 in 10.0 mi SW 5.8 mph - N/A   Mostly Cloudy
1:54 AM 72.0 °F - 69.1 °F 91% 29.88 in 10.0 mi NW 4.6 mph - N/A   Mostly Cloudy
2:54 AM 71.1 °F - 69.1 °F 93% 29.89 in 10.0 mi West 3.5 mph - N/A   Mostly Cloudy
3:54 AM 70.0 °F - 69.1 °F 97% 29.88 in 10.0 mi WSW 4.6 mph - N/A   Overcast
4:54 AM 71.1 °F - 69.1 °F 93% 29.88 in 10.0 mi West 4.6 mph - N/A   Overcast
5:54 AM 70.0 °F - 69.1 °F 97% 29.88 in 9.0 mi SW 4.6 mph - N/A   Overcast
6:54 AM 70.0 °F - 68.0 °F 93% 29.88 in 5.0 mi Calm Calm - N/A Fog Shallow Fog
7:54 AM 70.0 °F - 70.0 °F 100% 29.89 in 3.0 mi SSW 6.9 mph - N/A Fog Overcast
8:11 AM 70.0 °F - 70.0 °F 100% 29.92 in 4.0 mi SSW 5.8 mph - N/A   Overcast
8:47 AM 70.0 °F - 69.1 °F 97% 29.92 in 6.0 mi SW 8.1 mph - N/A   Mostly Cloudy
8:54 AM 71.1 °F - 70.0 °F 96% 29.91 in 6.0 mi SW 6.9 mph - N/A   Mostly Cloudy
9:10 AM 72.0 °F - 70.0 °F 93% 29.92 in 8.0 mi SW 8.1 mph - N/A   Mostly Cloudy
9:50 AM 73.4 °F - 69.8 °F 88% 29.92 in 10.0 mi SSW 5.8 mph - N/A   Mostly Cloudy
9:54 AM 73.0 °F - 69.1 °F 87% 29.90 in 10.0 mi SW 5.8 mph - N/A   Mostly Cloudy
10:51 AM 75.2 °F - 68.0 °F 78% 29.91 in 10.0 mi Variable 4.6 mph - N/A   Scattered Clouds
10:54 AM 75.9 °F - 68.0 °F 76% 29.89 in 10.0 mi Variable 3.5 mph - N/A   Mostly Cloudy
11:54 AM 80.1 °F 82.3 °F 66.9 °F 64% 29.89 in 10.0 mi WSW 6.9 mph - N/A   Scattered Clouds
12:54 PM 81.0 °F 82.7 °F 64.9 °F 58% 29.87 in 10.0 mi West 8.1 mph - N/A   Scattered Clouds
1:54 PM 82.9 °F 85.4 °F 66.9 °F 58% 29.84 in 10.0 mi WSW 13.8 mph 18.4 mph N/A   Scattered Clouds
2:54 PM 82.9 °F 85.4 °F 66.9 °F 58% 29.81 in 10.0 mi SW 10.4 mph - N/A   Mostly Cloudy
3:54 PM 84.2 °F 85.6 °F 64.4 °F 51% 29.83 in 10.0 mi WSW 12.7 mph 20.7 mph N/A   Mostly Cloudy
4:49 PM 80.6 °F 82.3 °F 64.4 °F 58% 29.84 in 10.0 mi WSW 15.0 mph - N/A Thunderstorm Thunderstorm
4:54 PM 81.0 °F 82.5 °F 64.0 °F 56% 29.82 in 10.0 mi WSW 12.7 mph - N/A Thunderstorm Thunderstorm
5:02 PM 75.9 °F - 64.0 °F 67% 29.88 in 1.0 mi NW 34.5 mph 44.9 mph 0.00 in Rain , Thunderstorm Heavy Thunderstorms and Rain
5:06 PM 68.0 °F - 64.0 °F 87% 29.87 in 0.5 mi NW 31.1 mph 44.9 mph N/A Rain , Thunderstorm Heavy Thunderstorms and Rain
5:15 PM 66.2 °F - 64.4 °F 94% 29.88 in 0.5 mi NNW 16.1 mph - N/A Rain , Thunderstorm Thunderstorms and Rain
5:20 PM 66.9 °F - 64.0 °F 90% 29.88 in 10.0 mi NNW 11.5 mph - 0.36 in Rain , Thunderstorm Light Thunderstorms and Rain
5:35 PM 66.9 °F - 64.9 °F 93% 29.87 in 10.0 mi WNW 6.9 mph - 0.36 in Rain Light Rain
5:54 PM 68.0 °F - 64.9 °F 90% 29.86 in 10.0 mi WSW 8.1 mph - 0.36 in Rain Light Rain
6:54 PM 66.9 °F - 64.0 °F 90% 29.83 in 10.0 mi SSW 6.9 mph - 0.03 in   Overcast
7:54 PM 66.9 °F - 64.0 °F 90% 29.85 in 10.0 mi SW 9.2 mph - 0.00 in Rain Light Rain
8:54 PM 66.9 °F - 64.0 °F 90% 29.83 in 10.0 mi WSW 8.1 mph - 0.00 in   Mostly Cloudy
9:54 PM 66.0 °F - 64.0 °F 93% 29.83 in 10.0 mi WSW 11.5 mph - 0.00 in   Mostly Cloudy
10:54 PM 66.9 °F - 64.9 °F 93% 29.84 in 10.0 mi West 9.2 mph - N/A   Overcast
11:54 PM 66.9 °F - 64.9 °F 93% 29.83 in 9.0 mi West 8.1 mph - N/A   Overcast